AirNav   Duncan Aviation - Near you to keep you flying
 
 1097 users online  

F69 Air Park-Dallas Airport
Dallas, Texas, USA

GOING TO DALLAS?


FAA INFORMATION EFFECTIVE 01 DECEMBER 2022

Location

FAA Identifier: F69
Lat/Long: 33-01-24.4370N 096-50-13.0060W
33-01.407283N 096-50.216767W
33.0234547,-96.8369461
(estimated)
Elevation: 695 ft. / 212 m (estimated)
Variation: 07E (1985)
From city: 16 miles NE of DALLAS, TX
Time zone: UTC -6 (UTC -5 during Daylight Saving Time)
Zip code: 75093

Airport Operations

Airport use: Open to the public
Control tower: no
ARTCC: FORT WORTH CENTER
FSS: FORT WORTH FLIGHT SERVICE STATION
NOTAMs facility: FTW (NOTAM-D service available)
Attendance: UNATNDD
Wind indicator: yes
Segmented circle: no

Airport Communications

CTAF: 122.9
WX AWOS-3PT at ADS (3 nm S): PHONE 972-386-4855
WX ASOS at DAL (11 nm S): PHONE 214-353-1551
WX ASOS at DFW (13 nm SW): PHONE 972-615-2608
WX AWOS-3 at 49T (15 nm S): 135.425 (214-670-1243)
WX ASOS at TKI (16 nm NE): PHONE 972-548-8525
  • ARPT INSIDE ADDISON CLASS D AIRSPACE. CTC ADDISON TOWER 126.0 (0600-2200).

Nearby radio navigation aids

VOR radial/distance  VOR name  Freq  Var
CVEr017/8.7COWBOY VOR/DME116.2006E
TTTr042/13.8MAVERICK VOR/DME113.1006E
FUZr059/19.0RANGER VORTAC115.7006E

 
NDB name  Hdg/Dist  Freq  Var  ID
MESQUITE307/20.124803EPQF .--. --.- ..-.

Airport Services

Parking: tiedowns
Airframe service: MAJOR
Powerplant service: MAJOR

Runway Information

Runway 16/34

Dimensions: 3080 x 30 ft. / 939 x 9 m
Surface: asphalt, in poor condition
Runway edge markings: RWY 34 MKD WITH 300 FT DSPLCD THR.
RUNWAY 16  RUNWAY 34
Traffic pattern: leftright
Displaced threshold: 300 ft.no
Markings: basic, in fair conditionbasic, in fair condition
Obstructions: 35 ft. tree, 343 ft. from runway, 45 ft. right of centerline, 4:1 slope to clear
ROAD 58 FT DSTC; 4 FT FENCE 20 FT DSTC.
48 ft. tree, 459 ft. from runway, 64 ft. left of centerline, 5:1 slope to clear
4 FT FENCE 0 FT DSTC 100 FT RIGHT. +15 FT RD 110 FT R.

Airport Ownership and Management from official FAA records

Ownership: Privately-owned
Owner: CROW BILLINGSLEY AIRPARK LTD
1722 ROUTH ST STE 707
DALLAS , TX 75201
Phone (214) 693-0513
Manager: BECKY ROWLAND
1722 ROUTH ST STE 707
DALLAS, TX 75201
Phone (214) 693-0513

Airport Operational Statistics

Aircraft based on the field: 63
Single engine airplanes: 60
Multi engine airplanes: 1
Helicopters: 1
Ultralights: 1
    
Aircraft operations: avg 57/week *
50% transient general aviation
50% local general aviation
* for 12-month period ending 22 September 2022

Additional Remarks

FOR CD CTC REGIONAL APCH AT 972-615-2799.
RWY 34 APCH, OBSTN LIGHT ON BLDG IS LOWER THAN OBSTRUCTIONS CLOSER TO RWY END.
RWY 16 APCH, OBSTN LIGHTS LOWER THAN OBSTRUCTIONS.

Instrument Procedures

There are no published instrument procedures at F69.

Some nearby airports with instrument procedures:

KADS - Addison Airport (3 nm S)
KDAL - Dallas Love Field Airport (11 nm S)
KDFW - Dallas-Fort Worth International Airport (13 nm SW)
KTKI - McKinney National Airport (16 nm NE)
KRBD - Dallas Executive Airport (21 nm S)
 
Loc | Ops | Rwys | IFR | FBO | Links
Com | Nav | Svcs | Stats | Notes

City of Fort Worth
 
Area around F69 (Air Park-Dallas Airport)
 
Road maps at: MapQuest Bing Google
 
Aerial photo
WARNING: Photo may not be current or correct
Aerial photo of F69 (Air Park-Dallas Airport)
Photo by K. Bruggers

Do you have a better or more recent aerial photo of Air Park-Dallas Airport that you would like to share? If so, please send us your photo.

 
Sectional chart

 
Airport distance calculator
Flying to Air Park-Dallas Airport? Find the distance to fly.

From to F69

Sunrise and sunset
Times for 02-Dec-2022
 Local
(UTC-6)
 Zulu
(UTC)
Morning civil twilight06:4712:47
Sunrise07:1413:14
Sunset17:1923:19
Evening civil twilight17:4623:46

Current date and time
Zulu (UTC)  02-Dec-2022 23:35:04
Local (UTC-6)  02-Dec-2022 17:35:04
 
METAR
KADS 
4nm S 
022247Z 17009G15KT 10SM SCT015 18/15 A2998
KDAL 
10nm S 
022253Z 16011KT 10SM FEW017 OVC250 18/15 A2997 RMK AO2 SLP147 T01780150 $
KDFW 
12nm SW 
022253Z 18011KT 10SM FEW016 BKN250 18/16 A2995 RMK AO2 SLP138 T01830156
KTKI 
16nm NE 
022253Z 18014KT 10SM OVC014 17/15 A2997 RMK AO2 SLP154 T01720150
TAF
KDAL 
10nm S 
022106Z 0221/0318 18012KT P6SM BKN015 TEMPO 0221/0223 FEW017 BKN022 FM030000 19011KT P6SM FEW250 FM030800 35018KT P6SM SCT025
KDFW 
12nm SW 
022106Z 0221/0324 18012KT P6SM BKN015 TEMPO 0221/0223 FEW017 BKN022 FM030000 19011KT P6SM FEW250 FM030800 35018KT P6SM SCT025 FM031800 01012KT P6SM FEW250
NOTAMs
Click for the latest NOTAMs
NOTAMs are issued by the DoD/FAA and will open in a separate window not controlled by AirNav.

 

 
 

Would you like to see your business listed on this page?

 If your business provides an interesting product or service to pilots, flight crews, aircraft, or users of the Air Park-Dallas Airport, you should consider listing it here.  To start the listing process, click on the button below
 
Add a business
 

Other Pages about Air Park-Dallas Airport

Update a link
 
Copyright © AirNav, LLC. All rights reserved. Privacy Policy  Contact